User: anonymous   Login
Location: Shades State Park
(39.9310°N, 87.0690°W)
Time: 07:13:14
(UTC-04:00)
Language:

H-2A R/B - Orbit

View from above orbital plane
View from above orbital plane
View from above satellite
View from above satellite

Ground track
Ground track

The orbit data is extracted from the following two-line orbital elements,

1 27601U 02056E   17083.85784388 +.00000040 +00000-0 +29847-4 0  9997
2 27601 098.3844 154.5372 0072235 184.5792 307.9563 14.31769667745746
Epoch (UTC): 24 March 2017 20:35:17
Eccentricity: 0.0072235
inclination: 98.3844°
perigee height: 734 km
apogee height: 837 km
right ascension of ascending node: 154.5372°
argument of perigee: 184.5792°
revolutions per day: 14.31769667
mean anomaly at epoch: 307.9563°
orbit number at epoch: 74574

The dashed part of the orbit path shows where the satellite is in the earth's shadow,  

DLR